Location: Peebles
(55.6412°N, 3.1714°W)
Time: 15:52:01
(UTC+00:00)

CSL-04 Deb - Visible Passes

Search period start: 11 December 2023 00:00
Search period end: 21 December 2023 00:00
Orbit: 665 x 782 km, 98.6° (Epoch: 10 December)

Date Brightness Start Highest point End Pass type
(mag) Time Alt. Az. Time Alt. Az. Time Alt. Az.
11 Dec ? 17:41:56 13° NNE 17:41:56 13° NNE 17:42:56 10° NNE visible
11 Dec ? 19:21:15 16° NNW 19:21:15 16° NNW 19:22:09 10° NNW visible
12 Dec ? 07:09:38 10° ENE 07:11:29 12° E 07:13:21 10° ESE visible
12 Dec ? 18:31:53 17° N 18:31:53 17° N 18:33:03 10° N visible
12 Dec ? 20:11:13 11° NNW 20:11:13 11° NNW 20:11:26 10° NNW visible
13 Dec ? 17:42:30 13° NNE 17:42:30 13° NNE 17:43:29 10° N visible
13 Dec ? 19:21:50 16° NNW 19:21:50 16° NNW 19:22:42 10° NNW visible
14 Dec ? 07:10:07 10° ENE 07:12:03 12° E 07:14:01 10° ESE visible
14 Dec ? 18:32:26 17° N 18:32:26 17° N 18:33:36 10° N visible
14 Dec ? 20:11:46 11° NNW 20:11:46 11° NNW 20:11:58 10° NNW visible
15 Dec ? 17:43:02 13° NNE 17:43:02 13° NNE 17:44:02 10° N visible
15 Dec ? 19:22:22 16° NNW 19:22:22 16° NNW 19:23:15 10° NNW visible
16 Dec ? 07:10:34 10° ENE 07:12:36 12° E 07:14:39 10° ESE visible
16 Dec ? 18:32:57 17° N 18:32:57 17° N 18:34:09 10° N visible
16 Dec ? 20:12:17 11° NNW 20:12:17 11° NNW 20:12:30 10° NNW visible
17 Dec ? 17:43:32 14° NNE 17:43:32 14° NNE 17:44:35 10° N visible
17 Dec ? 19:22:52 16° NNW 19:22:52 16° NNW 19:23:46 10° NNW visible
18 Dec ? 07:11:01 10° ENE 07:13:08 13° E 07:15:17 10° ESE visible
18 Dec ? 18:33:26 17° N 18:33:26 17° N 18:34:40 10° N visible
18 Dec ? 20:12:45 11° NNW 20:12:45 11° NNW 20:13:01 10° NNW visible
19 Dec ? 17:43:59 14° NNE 17:43:59 14° NNE 17:45:07 10° N visible
19 Dec ? 19:23:19 16° NNW 19:23:19 16° NNW 19:24:18 10° NNW visible
20 Dec ? 07:11:28 10° ENE 07:13:40 13° E 07:15:54 10° ESE visible
20 Dec ? 18:33:52 18° N 18:33:52 18° N 18:35:12 10° N visible
20 Dec ? 20:13:12 12° NNW 20:13:12 12° NNW 20:13:32 10° NNW visible
